When you browse on this site, cookies collect data to enhance your experience and personalize the content and advertising you see.
Visit our Privacy Policy to learn more. By continuing to use the site, you agree to this use of cookies and data.
  • In Czech Republic
  • List of Countries
  • For 7 days
  • Water Temperature
  • Satellite Maps
  • Weather Map
  • Weather Widgets
  • user-avatar
    Login

    Hourly Weather Cobán

    Today, 13 December, Thursday

    Time Temperature Precipitation Wind Pressure Humidity
    00:00 +14°C° 0 mm 1 mps 655 mmHg 93%
    01:00 +14°C° 0 mm 1 mps 654 mmHg 93%
    02:00 +14°C° 0 mm 1 mps 654 mmHg 93%
    03:00 +13°C° 0 mm 1 mps 653 mmHg 93%
    04:00 +13°C° 0 mm 1 mps 653 mmHg 93%
    05:00 +13°C° 0 mm 1 mps 653 mmHg 92%
    06:00 +13°C° 0 mm 1 mps 653 mmHg 91%
    07:00 +16°C° 0 mm 1 mps 655 mmHg 81%
    08:00 +18°C° 0 mm 0 mps 656 mmHg 70%
    09:00 +21°C° 0 mm 0 mps 657 mmHg 59%
    10:00 +23°C° 0 mm 0 mps 657 mmHg 54%
    11:00 +26°C° 0 mm 1 mps 657 mmHg 49%
    12:00 +28°C° 0 mm 1 mps 657 mmHg 44%
    13:00 +28°C° 0 mm 1 mps 656 mmHg 46%
    14:00 +27°C° 0 mm 1 mps 655 mmHg 48%
    15:00 +27°C° 0 mm 1 mps 654 mmHg 50%
    16:00 +24°C° 0.1 mm 1 mps 654 mmHg 60%
    17:00 +22°C° 0.1 mm 1 mps 653 mmHg 70%
    18:00 +18°C° 0.1 mm 0 mps 653 mmHg 80%
    19:00 +19°C° 0 mm 1 mps 653 mmHg 82%
    20:00 +19°C° 0 mm 1 mps 654 mmHg 83%
    21:00 +18°C° 0 mm 1 mps 654 mmHg 85%
    22:00 +18°C° 0 mm 1 mps 654 mmHg 85%
    23:00 +16°C° 0 mm 1 mps 654 mmHg 86%

    Tomorrow, 14 December, Friday

    Time Temperature Precipitation Wind Pressure Humidity
    00:00 +16°C° 0 mm 1 mps 654 mmHg 86%
    01:00 +16°C° 0 mm 1 mps 654 mmHg 87%
    02:00 +16°C° 0 mm 1 mps 653 mmHg 87%
    03:00 +15°C° 0 mm 1 mps 653 mmHg 87%
    04:00 +15°C° 0 mm 1 mps 653 mmHg 87%
    05:00 +15°C° 0 mm 1 mps 653 mmHg 87%
    06:00 +15°C° 0 mm 1 mps 653 mmHg 86%
    07:00 +19°C° 0 mm 1 mps 655 mmHg 78%
    08:00 +21°C° 0 mm 1 mps 656 mmHg 69%
    09:00 +23°C° 0 mm 1 mps 657 mmHg 61%
    10:00 +24°C° 0 mm 1 mps 657 mmHg 58%
    11:00 +25°C° 0 mm 1 mps 657 mmHg 55%
    12:00 +26°C° 0 mm 2 mps 657 mmHg 52%
    13:00 +25°C° 0.2 mm 2 mps 656 mmHg 57%
    14:00 +25°C° 0.2 mm 2 mps 655 mmHg 62%
    15:00 +24°C° 0.2 mm 2 mps 655 mmHg 67%
    16:00 +22°C° 0.4 mm 1 mps 655 mmHg 75%
    17:00 +20°C° 0.4 mm 1 mps 655 mmHg 84%
    18:00 +18°C° 0.4 mm 1 mps 655 mmHg 92%
    19:00 +18°C° 0.6 mm 1 mps 655 mmHg 94%
    20:00 +18°C° 0.6 mm 1 mps 656 mmHg 95%
    21:00 +16°C° 0.6 mm 1 mps 657 mmHg 97%
    22:00 +16°C° 0.7 mm 1 mps 657 mmHg 97%
    23:00 +16°C° 0.7 mm 1 mps 657 mmHg 97%

    Day after tomorrow, 15 December, Saturday

    Time Temperature Precipitation Wind Pressure Humidity
    00:00 +15°C° 0.7 mm 1 mps 657 mmHg 97%
    01:00 +15°C° 0.5 mm 1 mps 656 mmHg 97%
    02:00 +15°C° 0.5 mm 1 mps 656 mmHg 98%
    03:00 +15°C° 0.5 mm 1 mps 656 mmHg 98%
    04:00 +14°C° 0.3 mm 1 mps 656 mmHg 98%
    05:00 +14°C° 0.3 mm 1 mps 656 mmHg 98%
    06:00 +14°C° 0.3 mm 1 mps 656 mmHg 98%
    07:00 +14°C° 0.2 mm 1 mps 657 mmHg 97%
    08:00 +14°C° 0.2 mm 1 mps 658 mmHg 95%
    09:00 +14°C° 0.2 mm 1 mps 658 mmHg 94%
    10:00 +15°C° 0.2 mm 1 mps 658 mmHg 93%
    11:00 +15°C° 0.2 mm 1 mps 658 mmHg 91%
    12:00 +15°C° 0.2 mm 1 mps 657 mmHg 90%
    13:00 +15°C° 0.1 mm 1 mps 657 mmHg 89%
    14:00 +15°C° 0.1 mm 1 mps 656 mmHg 88%
    15:00 +15°C° 0.1 mm 1 mps 656 mmHg 87%
    16:00 +15°C° 0 mm 1 mps 656 mmHg 89%
    17:00 +14°C° 0 mm 1 mps 656 mmHg 91%
    18:00 +14°C° 0 mm 1 mps 657 mmHg 93%
    19:00 +13°C° 0 mm 1 mps 657 mmHg 94%
    20:00 +13°C° 0 mm 1 mps 658 mmHg 94%
    21:00 +13°C° 0 mm 1 mps 658 mmHg 95%
    22:00 +12°C° 0 mm 0 mps 658 mmHg 95%
    23:00 +11°C° 0 mm 0 mps 658 mmHg 95%

    16 December, Sunday

    Time Temperature Precipitation Wind Pressure Humidity
    00:00 +11°C° 0 mm 0 mps 658 mmHg 96%
    01:00 +11°C° 0 mm 0 mps 657 mmHg 96%
    02:00 +12°C° 0 mm 1 mps 657 mmHg 97%
    03:00 +12°C° 0 mm 1 mps 656 mmHg 97%
    04:00 +12°C° 0 mm 1 mps 657 mmHg 97%
    05:00 +12°C° 0 mm 1 mps 657 mmHg 96%
    06:00 +12°C° 0 mm 1 mps 657 mmHg 96%
    07:00 +13°C° 0 mm 1 mps 658 mmHg 93%
    08:00 +14°C° 0 mm 1 mps 658 mmHg 89%
    09:00 +14°C° 0 mm 1 mps 659 mmHg 86%
    10:00 +16°C° 0 mm 1 mps 659 mmHg 79%
    11:00 +18°C° 0 mm 1 mps 659 mmHg 72%
    12:00 +20°C° 0 mm 1 mps 658 mmHg 65%
    13:00 +20°C° 0 mm 1 mps 658 mmHg 67%
    14:00 +19°C° 0 mm 1 mps 657 mmHg 68%
    15:00 +19°C° 0 mm 1 mps 656 mmHg 70%
    16:00 +18°C° 0 mm 1 mps 656 mmHg 76%
    17:00 +16°C° 0 mm 1 mps 657 mmHg 83%
    18:00 +14°C° 0 mm 1 mps 657 mmHg 90%
    19:00 +14°C° 0 mm 1 mps 657 mmHg 91%
    20:00 +14°C° 0 mm 1 mps 658 mmHg 92%
    21:00 +12°C° 0 mm 0 mps 658 mmHg 94%
    22:00 +12°C° 0 mm 0 mps 658 mmHg 94%
    23:00 +12°C° 0 mm 0 mps 657 mmHg 94%

    17 December, Monday

    Time Temperature Precipitation Wind Pressure Humidity
    00:00 +12°C° 0 mm 0 mps 657 mmHg 95%
    01:00 +12°C° 0 mm 0 mps 657 mmHg 94%
    02:00 +12°C° 0 mm 0 mps 656 mmHg 94%
    03:00 +12°C° 0 mm 0 mps 656 mmHg 94%
    04:00 +13°C° 0 mm 1 mps 656 mmHg 95%
    05:00 +12°C° 0 mm 1 mps 657 mmHg 96%
    06:00 +12°C° 0 mm 1 mps 657 mmHg 97%
    07:00 +13°C° 0.1 mm 1 mps 658 mmHg 94%
    08:00 +13°C° 0.1 mm 1 mps 658 mmHg 92%
    09:00 +14°C° 0.1 mm 1 mps 659 mmHg 89%
    10:00 +15°C° 0 mm 1 mps 658 mmHg 85%
    11:00 +16°C° 0 mm 1 mps 658 mmHg 81%
    12:00 +18°C° 0 mm 1 mps 657 mmHg 77%
    13:00 +18°C° 0 mm 1 mps 657 mmHg 75%
    14:00 +18°C° 0 mm 1 mps 656 mmHg 73%
    15:00 +19°C° 0 mm 1 mps 656 mmHg 72%
    16:00 +16°C° 0 mm 1 mps 656 mmHg 78%
    17:00 +15°C° 0 mm 1 mps 656 mmHg 84%
    18:00 +14°C° 0 mm 1 mps 656 mmHg 90%
    19:00 +14°C° 0 mm 1 mps 656 mmHg 91%
    20:00 +13°C° 0 mm 1 mps 657 mmHg 92%
    21:00 +13°C° 0 mm 1 mps 657 mmHg 93%
    22:00 +12°C° 0 mm 0 mps 657 mmHg 92%
    23:00 +12°C° 0 mm 0 mps 656 mmHg 92%

    18 December, Tuesday

    Time Temperature Precipitation Wind Pressure Humidity
    00:00 +12°C° 0 mm 0 mps 656 mmHg 91%
    01:00 +12°C° 0 mm 0 mps 656 mmHg 92%
    02:00 +12°C° 0 mm 0 mps 656 mmHg 92%
    03:00 +11°C° 0 mm 0 mps 655 mmHg 93%
    04:00 +11°C° 0 mm 0 mps 655 mmHg 93%
    05:00 +11°C° 0 mm 0 mps 656 mmHg 94%
    06:00 +11°C° 0 mm 0 mps 656 mmHg 95%
    07:00 +12°C° 0 mm 0 mps 656 mmHg 90%
    08:00 +15°C° 0 mm 1 mps 657 mmHg 86%
    09:00 +16°C° 0 mm 1 mps 658 mmHg 81%
    10:00 +18°C° 0 mm 1 mps 657 mmHg 77%
    11:00 +19°C° 0 mm 1 mps 657 mmHg 72%
    12:00 +21°C° 0 mm 1 mps 657 mmHg 67%
    13:00 +20°C° 0 mm 1 mps 656 mmHg 68%
    14:00 +20°C° 0 mm 1 mps 656 mmHg 69%
    15:00 +20°C° 0 mm 1 mps 655 mmHg 70%
    16:00 +19°C° 0 mm 1 mps 655 mmHg 77%
    17:00 +16°C° 0 mm 1 mps 655 mmHg 84%
    18:00 +15°C° 0 mm 1 mps 655 mmHg 90%
    19:00 +14°C° 0 mm 0 mps 656 mmHg 92%
    20:00 +13°C° 0 mm 0 mps 656 mmHg 93%
    21:00 +13°C° 0 mm 0 mps 656 mmHg 95%
    22:00 +13°C° 0 mm 0 mps 656 mmHg 95%
    23:00 +13°C° 0 mm 0 mps 656 mmHg 96%
    Show more